Location: Rancho Santa Fe Post Office
(33.0184°N, 117.2026°W)
Time: 02:45:21
(UTC+00:00)

Cosmos 1515 - Pass Details

Date: 10 September 2024
Orbit: 430 x 435 km, 82.5° (Epoch: 06 October)

Event Time Altitude Azimuth Distance (km) Brightness Sun altitude
Rises 12:41:48 0° 178° (S) 2,394 7.0 -10.7°
Reaches altitude 10° 12:43:51 10° 174° (S) 1,528 6.0 -10.3°
Maximum altitude 12:47:07 59° 95° (E) 504 4.0 -9.6°
Drops below altitude 10° 12:50:24 10° 15° (NNE) 1,533 6.5 -8.9°
Sets 12:52:28 0° 11° (N) 2,403 7.4 -8.5°
